RYR1972 LEVC-GCTS

Flight info

Callsign RYR1972
Flight time 3h 6m
Altitude 37000
Route ASTRO M985 PIMOS N869 GALTO UN869 RUSIK
Aircraft B38M/M-SDE1FGHILORVWXY/HB1

Departure

Time 2026-04-28 16:05
Airport Valencia Airport (LEVC)

Arrival

Time 2026-04-28 19:11
Airport Tenerife Sur Airport (GCTS)
Time Latitude Longitude Altitude Speed Heading
2026-04-28 15:46 39.49000 -0.47619 202 ft 0 kts 218°
2026-04-28 16:00 39.48999 -0.47620 215 ft 0 kts 224°
2026-04-28 16:00 39.48999 -0.47624 205 ft 1 kts 263°
2026-04-28 16:00 39.49013 -0.47639 202 ft 8 kts 336°
2026-04-28 16:01 39.49068 -0.47741 203 ft 20 kts 280°
2026-04-28 16:01 39.49128 -0.47939 208 ft 27 kts 296°
2026-04-28 16:01 39.49178 -0.48102 216 ft 8 kts 258°
2026-04-28 16:01 39.49146 -0.48178 208 ft 14 kts 268°
2026-04-28 16:02 39.49187 -0.48307 212 ft 18 kts 296°
2026-04-28 16:02 39.49260 -0.48492 220 ft 28 kts 295°
2026-04-28 16:02 39.49361 -0.48761 221 ft 39 kts 297°
2026-04-28 16:02 39.49495 -0.49112 224 ft 48 kts 296°
2026-04-28 16:03 39.49651 -0.49521 234 ft 46 kts 295°
2026-04-28 16:03 39.49780 -0.49861 244 ft 31 kts 298°
2026-04-28 16:03 39.49786 -0.49961 247 ft 6 kts 220°
2026-04-28 16:03 39.49730 -0.49998 249 ft 14 kts 206°
2026-04-28 16:04 39.49660 -0.50031 249 ft 4 kts 174°
2026-04-28 16:04 39.49638 -0.50010 248 ft 10 kts 131°
2026-04-28 16:04 39.49572 -0.49843 242 ft 46 kts 116°
2026-04-28 16:04 39.49299 -0.49123 226 ft 128 kts 116°
2026-04-28 16:05 39.48808 -0.47845 394 ft 177 kts 116°
2026-04-28 16:05 39.48208 -0.46408 1270 ft 184 kts 116°
2026-04-28 16:05 39.47599 -0.44898 2155 ft 197 kts 116°
2026-04-28 16:05 39.46754 -0.43375 2819 ft 225 kts 136°
2026-04-28 16:06 39.45483 -0.42011 3638 ft 245 kts 140°
2026-04-28 16:06 39.44317 -0.40328 4555 ft 259 kts 122°
2026-04-28 16:06 39.43324 -0.38344 5620 ft 265 kts 123°
2026-04-28 16:06 39.42291 -0.36349 6682 ft 269 kts 124°
2026-04-28 16:07 39.41234 -0.34323 7652 ft 275 kts 124°
2026-04-28 16:07 39.40135 -0.32270 8608 ft 280 kts 129°
2026-04-28 16:07 39.36619 -0.30588 10291 ft 291 kts 191°
2026-04-28 16:08 39.34760 -0.31733 10852 ft 306 kts 221°
2026-04-28 16:08 39.33510 -0.33995 11457 ft 317 kts 245°
2026-04-28 16:08 39.32581 -0.36625 12107 ft 326 kts 244°
2026-04-28 16:09 39.30895 -0.42067 13661 ft 330 kts 255°
2026-04-28 16:09 39.30436 -0.44979 14378 ft 333 kts 261°
2026-04-28 16:09 39.30260 -0.47975 15026 ft 337 kts 268°
2026-04-28 16:10 39.30808 -0.54031 16445 ft 345 kts 282°
2026-04-28 16:10 39.31541 -0.56999 17110 ft 350 kts 289°
2026-04-28 16:10 39.33938 -0.62561 18360 ft 361 kts 303°
2026-04-28 16:11 39.35857 -0.68411 19415 ft 357 kts 270°
2026-04-28 16:11 39.34495 -0.74488 20311 ft 360 kts 234°
2026-04-28 16:12 39.30732 -0.78806 21153 ft 368 kts 220°
2026-04-28 16:12 39.29064 -0.81302 21630 ft 369 kts 236°
2026-04-28 16:13 39.25982 -0.86702 22424 ft 377 kts 232°
2026-04-28 16:13 39.24411 -0.89365 22839 ft 380 kts 232°
2026-04-28 16:13 39.21161 -0.94858 23623 ft 386 kts 232°
2026-04-28 16:14 39.17904 -1.00351 24290 ft 391 kts 232°
2026-04-28 16:14 39.14585 -1.05937 24917 ft 395 kts 232°
2026-04-28 16:15 39.11207 -1.11614 25465 ft 398 kts 232°
2026-04-28 16:15 39.09514 -1.14454 25718 ft 400 kts 232°
2026-04-28 16:15 39.07818 -1.17299 25964 ft 402 kts 232°
2026-04-28 16:16 39.04398 -1.23025 26439 ft 405 kts 232°
2026-04-28 16:16 39.02679 -1.25899 26651 ft 406 kts 232°
2026-04-28 16:17 38.99212 -1.31685 27069 ft 410 kts 232°
2026-04-28 16:17 38.97469 -1.34591 27271 ft 411 kts 232°
2026-04-28 16:17 38.95720 -1.37504 27441 ft 413 kts 232°
2026-04-28 16:17 38.93962 -1.40429 27622 ft 414 kts 232°
2026-04-28 16:18 38.92220 -1.43325 27799 ft 415 kts 232°
2026-04-28 16:18 38.90453 -1.46261 27965 ft 416 kts 231°
2026-04-28 16:18 38.88679 -1.49205 28121 ft 418 kts 231°
2026-04-28 16:18 38.86897 -1.52159 28265 ft 420 kts 231°
2026-04-28 16:19 38.85104 -1.55128 28405 ft 421 kts 231°
2026-04-28 16:19 38.83311 -1.58095 28545 ft 422 kts 231°
2026-04-28 16:19 38.81509 -1.61075 28677 ft 423 kts 231°
2026-04-28 16:19 38.79704 -1.64057 28807 ft 424 kts 231°
2026-04-28 16:20 38.77890 -1.67050 28938 ft 426 kts 231°
2026-04-28 16:20 38.76074 -1.70045 29062 ft 426 kts 231°
2026-04-28 16:20 38.72424 -1.76055 29266 ft 429 kts 231°
2026-04-28 16:21 38.70580 -1.79083 29371 ft 430 kts 231°
2026-04-28 16:21 38.68740 -1.82105 29468 ft 431 kts 231°
2026-04-28 16:21 38.66889 -1.85141 29571 ft 433 kts 231°
2026-04-28 16:21 38.65038 -1.88173 29670 ft 433 kts 231°
2026-04-28 16:22 38.61318 -1.94262 29857 ft 435 kts 230°
2026-04-28 16:22 38.57576 -2.00373 30030 ft 437 kts 230°
2026-04-28 16:23 38.53818 -2.06498 30245 ft 438 kts 230°
2026-04-28 16:23 38.51937 -2.09562 30347 ft 439 kts 230°
2026-04-28 16:23 38.50048 -2.12635 30459 ft 440 kts 230°
2026-04-28 16:24 38.48156 -2.15711 30565 ft 441 kts 230°
2026-04-28 16:24 38.46262 -2.18787 30677 ft 442 kts 230°
2026-04-28 16:24 38.44386 -2.21830 30787 ft 442 kts 230°
2026-04-28 16:24 38.42482 -2.24917 30898 ft 443 kts 230°
2026-04-28 16:25 38.40549 -2.28047 31019 ft 444 kts 230°
2026-04-28 16:25 38.38661 -2.31102 31142 ft 445 kts 230°
2026-04-28 16:25 38.36743 -2.34200 31268 ft 446 kts 230°
2026-04-28 16:25 38.34639 -2.37091 31397 ft 445 kts 224°
2026-04-28 16:26 38.32485 -2.39926 31504 ft 446 kts 225°
2026-04-28 16:26 38.30339 -2.42791 31642 ft 447 kts 225°
2026-04-28 16:26 38.28202 -2.45665 31795 ft 448 kts 225°
2026-04-28 16:26 38.26060 -2.48549 31929 ft 449 kts 225°
2026-04-28 16:27 38.23915 -2.51438 32083 ft 450 kts 225°
2026-04-28 16:27 38.21763 -2.54334 32239 ft 450 kts 225°
2026-04-28 16:27 38.17450 -2.60130 32549 ft 453 kts 225°
2026-04-28 16:28 38.15284 -2.63037 32715 ft 453 kts 225°
2026-04-28 16:28 38.13113 -2.65948 32914 ft 454 kts 225°
2026-04-28 16:28 38.10941 -2.68857 33136 ft 454 kts 225°
2026-04-28 16:28 38.08766 -2.71768 33396 ft 453 kts 225°
2026-04-28 16:29 38.04434 -2.77557 33957 ft 451 kts 225°
2026-04-28 16:29 38.00118 -2.83314 34550 ft 450 kts 225°
2026-04-28 16:30 37.97962 -2.86188 34848 ft 449 kts 226°
2026-04-28 16:30 37.95810 -2.89050 35074 ft 449 kts 225°
2026-04-28 16:30 37.93648 -2.91907 35336 ft 449 kts 226°
2026-04-28 16:30 37.91492 -2.94758 35634 ft 447 kts 226°
2026-04-28 16:31 37.89340 -2.97600 35922 ft 446 kts 226°
2026-04-28 16:31 37.87191 -3.00435 36191 ft 446 kts 226°
2026-04-28 16:31 37.85049 -3.03259 36458 ft 445 kts 226°
2026-04-28 16:31 37.82909 -3.06079 36727 ft 443 kts 226°
2026-04-28 16:32 37.80774 -3.08888 36939 ft 442 kts 226°
2026-04-28 16:32 37.74487 -3.17149 36914 ft 431 kts 226°
2026-04-28 16:33 37.71028 -3.21684 36925 ft 432 kts 226°
2026-04-28 16:33 37.66158 -3.28058 36913 ft 431 kts 226°
2026-04-28 16:34 37.61988 -3.33507 36923 ft 431 kts 226°
2026-04-28 16:34 37.57816 -3.38948 36914 ft 431 kts 226°
2026-04-28 16:35 37.53647 -3.44376 36925 ft 431 kts 226°
2026-04-28 16:35 37.49478 -3.49794 36928 ft 431 kts 226°
2026-04-28 16:36 37.45308 -3.55206 36931 ft 431 kts 226°
2026-04-28 16:36 37.41132 -3.60616 36931 ft 431 kts 226°
2026-04-28 16:37 37.36956 -3.66015 36932 ft 431 kts 226°
2026-04-28 16:38 37.30686 -3.74106 36935 ft 431 kts 226°
2026-04-28 16:38 37.26500 -3.79495 36933 ft 431 kts 226°
2026-04-28 16:39 37.22310 -3.84882 36933 ft 431 kts 226°
2026-04-28 16:39 37.18116 -3.90264 36933 ft 431 kts 226°
2026-04-28 16:40 37.13916 -3.95644 36935 ft 432 kts 226°
2026-04-28 16:40 37.09712 -4.01021 36933 ft 432 kts 226°
2026-04-28 16:41 37.05511 -4.06386 36917 ft 431 kts 226°
2026-04-28 16:41 37.01340 -4.11702 36930 ft 431 kts 226°
2026-04-28 16:42 36.97135 -4.17053 36919 ft 431 kts 226°
2026-04-28 16:42 36.92922 -4.22405 36912 ft 432 kts 226°
2026-04-28 16:43 36.88710 -4.27747 36922 ft 432 kts 226°
2026-04-28 16:43 36.84494 -4.33087 36923 ft 432 kts 226°
2026-04-28 16:44 36.80018 -4.38066 36906 ft 432 kts 212°
2026-04-28 16:44 36.74933 -4.42109 36912 ft 434 kts 214°
2026-04-28 16:45 36.69847 -4.46174 36912 ft 435 kts 213°
2026-04-28 16:45 36.64750 -4.50222 36918 ft 435 kts 213°
2026-04-28 16:46 36.59654 -4.54260 36911 ft 435 kts 213°
2026-04-28 16:46 36.54547 -4.58300 36914 ft 434 kts 213°
2026-04-28 16:47 36.49445 -4.62331 36903 ft 435 kts 213°
2026-04-28 16:47 36.44337 -4.66360 36908 ft 435 kts 213°
2026-04-28 16:48 36.39231 -4.70380 36908 ft 434 kts 213°
2026-04-28 16:48 36.34122 -4.74397 36903 ft 434 kts 213°
2026-04-28 16:49 36.29020 -4.78402 36909 ft 434 kts 213°
2026-04-28 16:49 36.23910 -4.82407 36901 ft 434 kts 213°
2026-04-28 16:50 36.19671 -4.85726 36909 ft 434 kts 213°
2026-04-28 16:50 36.14583 -4.89717 36905 ft 433 kts 214°
2026-04-28 16:51 36.09516 -4.93735 36912 ft 432 kts 214°
2026-04-28 16:51 36.04450 -4.97738 36920 ft 432 kts 213°
2026-04-28 16:52 35.99380 -5.01740 36911 ft 432 kts 213°
2026-04-28 16:52 35.94322 -5.05724 36906 ft 430 kts 213°
2026-04-28 16:53 35.89284 -5.09687 36909 ft 429 kts 213°
2026-04-28 16:53 35.84249 -5.13643 36919 ft 428 kts 214°
2026-04-28 16:54 35.79542 -5.18036 36915 ft 428 kts 218°
2026-04-28 16:54 35.74766 -5.22475 36913 ft 427 kts 218°
2026-04-28 16:55 35.70035 -5.26830 36907 ft 427 kts 218°
2026-04-28 16:55 35.65275 -5.31200 36923 ft 427 kts 217°
2026-04-28 16:56 35.60517 -5.35562 36909 ft 427 kts 217°
2026-04-28 16:56 35.55760 -5.39917 36917 ft 427 kts 217°
2026-04-28 16:57 35.50998 -5.44269 36914 ft 426 kts 217°
2026-04-28 16:57 35.46242 -5.48610 36913 ft 426 kts 217°
2026-04-28 16:58 35.41483 -5.52946 36900 ft 425 kts 217°
2026-04-28 16:58 35.36741 -5.57261 36909 ft 425 kts 217°
2026-04-28 16:59 35.32114 -5.61464 36900 ft 424 kts 217°
2026-04-28 16:59 35.27370 -5.65768 36896 ft 424 kts 217°
2026-04-28 17:00 35.22628 -5.70063 36902 ft 424 kts 217°
2026-04-28 17:00 35.17914 -5.74327 36898 ft 424 kts 217°
2026-04-28 17:01 35.13178 -5.78605 36892 ft 423 kts 217°
2026-04-28 17:01 35.08447 -5.82871 36898 ft 423 kts 217°
2026-04-28 17:02 35.03708 -5.87139 36902 ft 423 kts 217°
2026-04-28 17:02 34.98981 -5.91389 36893 ft 422 kts 217°
2026-04-28 17:03 34.91891 -5.97753 36887 ft 421 kts 217°
2026-04-28 17:03 34.87172 -6.01980 36891 ft 421 kts 217°
2026-04-28 17:04 34.80113 -6.08292 36887 ft 419 kts 216°
2026-04-28 17:05 34.73072 -6.14576 36889 ft 419 kts 216°
2026-04-28 17:06 34.66054 -6.20824 36885 ft 419 kts 216°
2026-04-28 17:06 34.59021 -6.27073 36888 ft 418 kts 216°
2026-04-28 17:07 34.54329 -6.31234 36888 ft 418 kts 216°
2026-04-28 17:07 34.49638 -6.35389 36887 ft 417 kts 216°
2026-04-28 17:08 34.44952 -6.39532 36885 ft 417 kts 216°
2026-04-28 17:08 34.40271 -6.43666 36890 ft 417 kts 216°
2026-04-28 17:09 34.35582 -6.47802 36890 ft 417 kts 216°
2026-04-28 17:09 34.30896 -6.51929 36887 ft 417 kts 216°
2026-04-28 17:10 34.26206 -6.56053 36885 ft 417 kts 216°
2026-04-28 17:10 34.21514 -6.60173 36890 ft 417 kts 216°
2026-04-28 17:11 34.16823 -6.64289 36889 ft 417 kts 216°
2026-04-28 17:11 34.11929 -6.68028 36892 ft 417 kts 212°
2026-04-28 17:12 34.06987 -6.71694 36886 ft 417 kts 212°
2026-04-28 17:12 34.02046 -6.75384 36889 ft 418 kts 213°
2026-04-28 17:13 33.99743 -6.77502 36873 ft 417 kts 224°
2026-04-28 17:13 33.97799 -6.80087 36904 ft 417 kts 227°
2026-04-28 17:13 33.93853 -6.85229 36887 ft 417 kts 227°
2026-04-28 17:14 33.89887 -6.90343 36889 ft 417 kts 227°
2026-04-28 17:14 33.85917 -6.95448 36892 ft 418 kts 227°
2026-04-28 17:15 33.81974 -7.00512 36894 ft 418 kts 227°
2026-04-28 17:15 33.77998 -7.05610 36902 ft 418 kts 227°
2026-04-28 17:16 33.74019 -7.10704 36907 ft 417 kts 227°
2026-04-28 17:16 33.70048 -7.15781 36901 ft 417 kts 227°
2026-04-28 17:17 33.66073 -7.20856 36907 ft 418 kts 227°
2026-04-28 17:17 33.62087 -7.25937 36906 ft 418 kts 227°
2026-04-28 17:18 33.58097 -7.31016 36917 ft 418 kts 227°
2026-04-28 17:18 33.54116 -7.36076 36915 ft 417 kts 227°
2026-04-28 17:19 33.50156 -7.41102 36910 ft 417 kts 227°
2026-04-28 17:19 33.46171 -7.46153 36913 ft 417 kts 227°
2026-04-28 17:20 33.42831 -7.50380 36919 ft 417 kts 227°
2026-04-28 17:20 33.38193 -7.56242 36918 ft 417 kts 227°
2026-04-28 17:21 33.34200 -7.61282 36924 ft 417 kts 226°
2026-04-28 17:22 33.28205 -7.68834 36916 ft 418 kts 227°
2026-04-28 17:22 33.24207 -7.73862 36910 ft 417 kts 227°
2026-04-28 17:23 33.18216 -7.81382 36923 ft 417 kts 227°
2026-04-28 17:23 33.14251 -7.86350 36914 ft 416 kts 227°
2026-04-28 17:24 33.10262 -7.91342 36925 ft 416 kts 227°
2026-04-28 17:24 33.06274 -7.96326 36906 ft 415 kts 227°
2026-04-28 17:25 33.00302 -8.03776 36917 ft 416 kts 227°
2026-04-28 17:26 32.96300 -8.08759 36914 ft 415 kts 227°
2026-04-28 17:26 32.92307 -8.13725 36908 ft 415 kts 227°
2026-04-28 17:27 32.88340 -8.18650 36909 ft 415 kts 227°
2026-04-28 17:27 32.84354 -8.23593 36916 ft 414 kts 227°
2026-04-28 17:28 32.80364 -8.28534 36927 ft 414 kts 227°
2026-04-28 17:28 32.74385 -8.35924 36928 ft 413 kts 227°
2026-04-28 17:29 32.70401 -8.40841 36928 ft 413 kts 227°
2026-04-28 17:30 32.64426 -8.48202 36918 ft 413 kts 227°
2026-04-28 17:30 32.58446 -8.55553 36930 ft 413 kts 227°
2026-04-28 17:31 32.52489 -8.62862 36924 ft 413 kts 227°
2026-04-28 17:32 32.46497 -8.70199 36932 ft 413 kts 227°
2026-04-28 17:32 32.42499 -8.75085 36933 ft 413 kts 227°
2026-04-28 17:33 32.38495 -8.79973 36934 ft 413 kts 227°
2026-04-28 17:33 32.35168 -8.84029 36934 ft 413 kts 227°
2026-04-28 17:34 32.30486 -8.89730 36933 ft 414 kts 227°
2026-04-28 17:34 32.26468 -8.94614 36935 ft 415 kts 227°
2026-04-28 17:35 32.22442 -8.99502 36934 ft 415 kts 227°
2026-04-28 17:35 32.18408 -9.04392 36932 ft 416 kts 227°
2026-04-28 17:36 32.14397 -9.09249 36933 ft 416 kts 227°
2026-04-28 17:36 32.10357 -9.14134 36935 ft 416 kts 227°
2026-04-28 17:37 32.06311 -9.19019 36936 ft 417 kts 227°
2026-04-28 17:37 32.02256 -9.23909 36933 ft 417 kts 227°
2026-04-28 17:38 31.98193 -9.28802 36938 ft 417 kts 228°
2026-04-28 17:38 31.94157 -9.33656 36928 ft 414 kts 228°
2026-04-28 17:39 31.90124 -9.38500 36938 ft 415 kts 228°
2026-04-28 17:40 31.84050 -9.45783 36936 ft 416 kts 228°
2026-04-28 17:40 31.79995 -9.50637 36933 ft 416 kts 228°
2026-04-28 17:41 31.75933 -9.55493 36934 ft 416 kts 228°
2026-04-28 17:41 31.71867 -9.60346 36933 ft 417 kts 228°
2026-04-28 17:42 31.67791 -9.65208 36938 ft 418 kts 228°
2026-04-28 17:42 31.63738 -9.70032 36930 ft 418 kts 228°
2026-04-28 17:43 31.59659 -9.74883 36934 ft 418 kts 227°
2026-04-28 17:43 31.55575 -9.79733 36934 ft 418 kts 227°
2026-04-28 17:44 31.51492 -9.84576 36935 ft 417 kts 227°
2026-04-28 17:44 31.47413 -9.89406 36933 ft 417 kts 228°
2026-04-28 17:45 31.43335 -9.94229 36935 ft 417 kts 228°
2026-04-28 17:45 31.39264 -9.99039 36934 ft 416 kts 227°
2026-04-28 17:46 31.35183 -10.03853 36934 ft 418 kts 228°
2026-04-28 17:46 31.31111 -10.08651 36934 ft 418 kts 228°
2026-04-28 17:47 31.27013 -10.13473 36931 ft 417 kts 228°
2026-04-28 17:47 31.22919 -10.18284 36937 ft 417 kts 228°
2026-04-28 17:48 31.19516 -10.22279 36934 ft 417 kts 228°
2026-04-28 17:48 31.15423 -10.27077 36933 ft 417 kts 228°
2026-04-28 17:49 31.11335 -10.31863 36934 ft 416 kts 228°
2026-04-28 17:49 31.07254 -10.36637 36936 ft 416 kts 228°
2026-04-28 17:50 31.03165 -10.41410 36937 ft 415 kts 228°
2026-04-28 17:50 30.99087 -10.46166 36933 ft 415 kts 228°
2026-04-28 17:51 30.95010 -10.50916 36935 ft 415 kts 228°
2026-04-28 17:51 30.90930 -10.55661 36914 ft 415 kts 228°
2026-04-28 17:52 30.86879 -10.60368 36918 ft 414 kts 228°
2026-04-28 17:52 30.80761 -10.67464 36918 ft 414 kts 228°
2026-04-28 17:53 30.76681 -10.72191 36912 ft 414 kts 228°
2026-04-28 17:53 30.72600 -10.76910 36930 ft 415 kts 228°
2026-04-28 17:54 30.68514 -10.81631 36930 ft 414 kts 228°
2026-04-28 17:54 30.64430 -10.86343 36930 ft 414 kts 228°
2026-04-28 17:55 30.60342 -10.91055 36930 ft 414 kts 228°
2026-04-28 17:55 30.56277 -10.95732 36928 ft 414 kts 228°
2026-04-28 17:56 30.52182 -11.00438 36924 ft 414 kts 228°
2026-04-28 17:56 30.48087 -11.05141 36930 ft 415 kts 228°
2026-04-28 17:57 30.43985 -11.09842 36930 ft 415 kts 228°
2026-04-28 17:57 30.39881 -11.14542 36922 ft 414 kts 228°
2026-04-28 17:58 30.35776 -11.19237 36935 ft 415 kts 228°
2026-04-28 17:58 30.31669 -11.23929 36951 ft 415 kts 228°
2026-04-28 17:59 30.27558 -11.28619 36944 ft 414 kts 228°
2026-04-28 17:59 30.23477 -11.33268 36944 ft 415 kts 229°
2026-04-28 18:00 30.19363 -11.37950 36942 ft 415 kts 228°
2026-04-28 18:00 30.15248 -11.42627 36939 ft 415 kts 228°
2026-04-28 18:01 30.11127 -11.47305 36936 ft 415 kts 229°
2026-04-28 18:01 30.07013 -11.51970 36935 ft 415 kts 229°
2026-04-28 18:02 30.02894 -11.56634 36934 ft 415 kts 229°
2026-04-28 18:02 29.98774 -11.61293 36935 ft 415 kts 228°
2026-04-28 18:03 29.94656 -11.65946 36934 ft 414 kts 228°
2026-04-28 18:03 29.90537 -11.70593 36943 ft 415 kts 228°
2026-04-28 18:04 29.86412 -11.75241 36943 ft 415 kts 228°
2026-04-28 18:04 29.82284 -11.79887 36944 ft 415 kts 228°
2026-04-28 18:05 29.78855 -11.83742 36944 ft 415 kts 228°
2026-04-28 18:05 29.74026 -11.89165 36944 ft 414 kts 228°
2026-04-28 18:06 29.69897 -11.93795 36944 ft 415 kts 228°
2026-04-28 18:06 29.65760 -11.98429 36943 ft 415 kts 228°
2026-04-28 18:07 29.61626 -12.03053 36942 ft 415 kts 228°
2026-04-28 18:07 29.57506 -12.07656 36944 ft 416 kts 228°
2026-04-28 18:08 29.53351 -12.12293 36948 ft 417 kts 228°
2026-04-28 18:08 29.49170 -12.16953 36953 ft 420 kts 228°
2026-04-28 18:09 29.44977 -12.21621 36953 ft 420 kts 228°
2026-04-28 18:09 29.40784 -12.26284 36953 ft 420 kts 228°
2026-04-28 18:10 29.36581 -12.30951 36953 ft 421 kts 228°
2026-04-28 18:10 29.32378 -12.35613 36953 ft 421 kts 227°
2026-04-28 18:11 29.28169 -12.40276 36960 ft 421 kts 227°
2026-04-28 18:11 29.23958 -12.44936 36962 ft 421 kts 227°
2026-04-28 18:12 29.19744 -12.49593 36961 ft 421 kts 227°
2026-04-28 18:12 29.15525 -12.54251 36962 ft 421 kts 227°
2026-04-28 18:13 29.11304 -12.58905 36968 ft 421 kts 227°
2026-04-28 18:13 29.07084 -12.63551 36969 ft 421 kts 227°
2026-04-28 18:14 29.02864 -12.68193 36971 ft 422 kts 227°
2026-04-28 18:14 28.98632 -12.72843 36971 ft 422 kts 227°
2026-04-28 18:15 28.94405 -12.77481 36974 ft 422 kts 227°
2026-04-28 18:15 28.90395 -12.82318 36961 ft 415 kts 242°
2026-04-28 18:16 28.87652 -12.88047 36980 ft 416 kts 243°
2026-04-28 18:16 28.84837 -12.93815 36981 ft 416 kts 243°
2026-04-28 18:17 28.82031 -12.99583 36984 ft 416 kts 243°
2026-04-28 18:17 28.79221 -13.05351 36990 ft 416 kts 243°
2026-04-28 18:18 28.76408 -13.11119 36991 ft 417 kts 243°
2026-04-28 18:18 28.74045 -13.15957 36991 ft 417 kts 243°
2026-04-28 18:19 28.70764 -13.22668 36989 ft 417 kts 243°
2026-04-28 18:19 28.67935 -13.28444 36988 ft 418 kts 243°
2026-04-28 18:20 28.65101 -13.34220 36995 ft 418 kts 243°
2026-04-28 18:20 28.62265 -13.39994 36989 ft 418 kts 243°
2026-04-28 18:21 28.59422 -13.45774 36990 ft 419 kts 243°
2026-04-28 18:21 28.56578 -13.51550 36990 ft 418 kts 243°
2026-04-28 18:22 28.53731 -13.57322 36990 ft 419 kts 243°
2026-04-28 18:22 28.50878 -13.63097 36991 ft 419 kts 243°
2026-04-28 18:23 28.48018 -13.68879 36990 ft 419 kts 243°
2026-04-28 18:23 28.45178 -13.74613 36990 ft 419 kts 243°
2026-04-28 18:24 28.42778 -13.79452 36989 ft 420 kts 243°
2026-04-28 18:24 28.39444 -13.86166 36988 ft 420 kts 243°
2026-04-28 18:25 28.36571 -13.91941 36993 ft 420 kts 242°
2026-04-28 18:26 28.32260 -14.00594 36991 ft 420 kts 242°
2026-04-28 18:26 28.29378 -14.06368 36997 ft 420 kts 242°
2026-04-28 18:27 28.26493 -14.12142 36999 ft 421 kts 242°
2026-04-28 18:27 28.23601 -14.17919 37004 ft 421 kts 242°
2026-04-28 18:28 28.20708 -14.23692 36999 ft 421 kts 242°
2026-04-28 18:28 28.17816 -14.29454 36999 ft 421 kts 242°
2026-04-28 18:29 28.14917 -14.35222 36998 ft 421 kts 242°
2026-04-28 18:29 28.12017 -14.40985 37004 ft 421 kts 242°
2026-04-28 18:30 28.09112 -14.46748 37010 ft 421 kts 242°
2026-04-28 18:30 28.06210 -14.52502 37004 ft 421 kts 242°
2026-04-28 18:31 28.03306 -14.58252 37009 ft 421 kts 242°
2026-04-28 18:31 28.00425 -14.64031 37006 ft 421 kts 247°
2026-04-28 18:31 27.99559 -14.67163 37038 ft 416 kts 258°
2026-04-28 18:32 27.98865 -14.70303 36997 ft 417 kts 256°
2026-04-28 18:32 27.97441 -14.76645 37021 ft 416 kts 257°
2026-04-28 18:33 27.96057 -14.82997 37018 ft 416 kts 257°
2026-04-28 18:33 27.94677 -14.89350 37018 ft 416 kts 257°
2026-04-28 18:34 27.93294 -14.95707 37017 ft 416 kts 257°
2026-04-28 18:34 27.91909 -15.02060 37018 ft 416 kts 257°
2026-04-28 18:35 27.90519 -15.08416 37016 ft 417 kts 257°
2026-04-28 18:35 27.89125 -15.14781 37017 ft 417 kts 257°
2026-04-28 18:36 27.87727 -15.21147 37017 ft 417 kts 257°
2026-04-28 18:36 27.86325 -15.27513 37016 ft 417 kts 257°
2026-04-28 18:37 27.84928 -15.33846 37018 ft 418 kts 257°
2026-04-28 18:37 27.83518 -15.40225 37016 ft 419 kts 257°
2026-04-28 18:37 27.83113 -15.43461 37000 ft 416 kts 271°
2026-04-28 18:38 27.83291 -15.46725 37024 ft 418 kts 274°
2026-04-28 18:38 27.83762 -15.53276 37021 ft 419 kts 275°
2026-04-28 18:39 27.84308 -15.59844 37019 ft 420 kts 275°
2026-04-28 18:39 27.84873 -15.66405 37030 ft 420 kts 276°
2026-04-28 18:40 27.85439 -15.72986 37019 ft 421 kts 276°
2026-04-28 18:40 27.86003 -15.79569 37016 ft 422 kts 275°
2026-04-28 18:41 27.86564 -15.86161 37015 ft 419 kts 275°
2026-04-28 18:41 27.87112 -15.92652 37012 ft 413 kts 275°
2026-04-28 18:42 27.87564 -15.98020 37018 ft 414 kts 275°
2026-04-28 18:42 27.88107 -16.04496 37017 ft 414 kts 275°
2026-04-28 18:43 27.88646 -16.10973 37017 ft 414 kts 275°
2026-04-28 18:43 27.89182 -16.17446 37018 ft 414 kts 275°
2026-04-28 18:44 27.89704 -16.23919 37015 ft 413 kts 272°
2026-04-28 18:44 27.88529 -16.30199 37028 ft 414 kts 250°
2026-04-28 18:44 27.87459 -16.33230 37009 ft 415 kts 249°
2026-04-28 18:45 27.85257 -16.39264 37020 ft 415 kts 249°
2026-04-28 18:45 27.83015 -16.45271 37025 ft 415 kts 249°
2026-04-28 18:46 27.80767 -16.51261 37027 ft 414 kts 249°
2026-04-28 18:46 27.78533 -16.57203 37026 ft 413 kts 249°
2026-04-28 18:47 27.76316 -16.63092 37025 ft 394 kts 249°
2026-04-28 18:47 27.75535 -16.65967 36992 ft 376 kts 265°
2026-04-28 18:47 27.75619 -16.68835 37039 ft 362 kts 282°
2026-04-28 18:48 27.76427 -16.71520 37007 ft 362 kts 297°
2026-04-28 18:48 27.77843 -16.73864 37026 ft 364 kts 311°
2026-04-28 18:48 27.81444 -16.77905 37027 ft 365 kts 310°
2026-04-28 18:49 27.83877 -16.81728 36983 ft 358 kts 288°
2026-04-28 18:49 27.84426 -16.85399 37035 ft 357 kts 268°
2026-04-28 18:49 27.84064 -16.88178 37013 ft 360 kts 254°
2026-04-28 18:50 27.83140 -16.90643 37026 ft 363 kts 240°
2026-04-28 18:50 27.81819 -16.93078 37022 ft 364 kts 245°
2026-04-28 18:50 27.80680 -16.95625 36912 ft 359 kts 246°
2026-04-28 18:50 27.79580 -16.98143 36099 ft 360 kts 246°
2026-04-28 18:51 27.78463 -17.00716 34958 ft 370 kts 246°
2026-04-28 18:51 27.77323 -17.03365 33742 ft 381 kts 246°
2026-04-28 18:51 27.76159 -17.06096 32534 ft 391 kts 246°
2026-04-28 18:51 27.74980 -17.08880 31515 ft 394 kts 246°
2026-04-28 18:52 27.73806 -17.11655 30786 ft 389 kts 246°
2026-04-28 18:52 27.72646 -17.14394 29977 ft 386 kts 246°
2026-04-28 18:52 27.71438 -17.17128 28734 ft 394 kts 240°
2026-04-28 18:52 27.69653 -17.19514 27370 ft 406 kts 222°
2026-04-28 18:53 27.67218 -17.21202 26023 ft 419 kts 204°
2026-04-28 18:53 27.64431 -17.21938 25049 ft 422 kts 186°
2026-04-28 18:53 27.61492 -17.21685 24117 ft 423 kts 169°
2026-04-28 18:53 27.58664 -17.20811 23187 ft 420 kts 166°
2026-04-28 18:54 27.55898 -17.19813 22278 ft 417 kts 158°
2026-04-28 18:54 27.53511 -17.18008 21571 ft 413 kts 135°
2026-04-28 18:54 27.51913 -17.15382 21100 ft 407 kts 113°
2026-04-28 18:54 27.51180 -17.12329 20642 ft 402 kts 97°
2026-04-28 18:55 27.51100 -17.09208 20173 ft 397 kts 83°
2026-04-28 18:55 27.51428 -17.07156 19855 ft 392 kts 72°
2026-04-28 18:55 27.53023 -17.03589 19252 ft 382 kts 49°
2026-04-28 18:55 27.54915 -17.01560 18796 ft 372 kts 32°
2026-04-28 18:56 27.57172 -17.00215 18353 ft 363 kts 17°
2026-04-28 18:56 27.59600 -16.99590 17919 ft 354 kts
2026-04-28 18:56 27.62025 -16.99685 17514 ft 345 kts 348°
2026-04-28 18:56 27.64376 -17.00121 17097 ft 341 kts 348°
2026-04-28 18:57 27.66716 -17.00523 16469 ft 343 kts 349°
2026-04-28 18:57 27.69100 -17.00898 15777 ft 348 kts 350°
2026-04-28 18:57 27.71507 -17.01276 15070 ft 351 kts 350°
2026-04-28 18:57 27.73945 -17.01663 14345 ft 355 kts 350°
2026-04-28 18:58 27.76401 -17.02060 13642 ft 358 kts 350°
2026-04-28 18:58 27.78869 -17.02466 12929 ft 360 kts 350°
2026-04-28 18:58 27.81351 -17.02883 12214 ft 361 kts 350°
2026-04-28 18:58 27.83835 -17.03307 11601 ft 360 kts 350°
2026-04-28 18:59 27.86262 -17.03725 11118 ft 346 kts 350°
2026-04-28 18:59 27.88539 -17.04380 10531 ft 334 kts 335°
2026-04-28 18:59 27.90415 -17.05780 10233 ft 315 kts 315°
2026-04-28 18:59 27.91677 -17.07745 9655 ft 309 kts 294°
2026-04-28 19:00 27.92135 -17.10093 8994 ft 308 kts 270°
2026-04-28 19:00 27.91725 -17.12450 8310 ft 308 kts 248°
2026-04-28 19:00 27.90513 -17.14389 7924 ft 298 kts 221°
2026-04-28 19:00 27.88788 -17.15519 7824 ft 278 kts 198°
2026-04-28 19:01 27.86946 -17.15798 7744 ft 260 kts 176°
2026-04-28 19:01 27.85226 -17.15332 7670 ft 257 kts 156°
2026-04-28 19:01 27.83689 -17.14214 7630 ft 270 kts 136°
2026-04-28 19:01 27.82587 -17.12498 7563 ft 273 kts 112°
2026-04-28 19:02 27.82141 -17.10423 7500 ft 274 kts 90°
2026-04-28 19:02 27.82416 -17.08316 7417 ft 271 kts 69°
2026-04-28 19:02 27.83330 -17.06476 7221 ft 269 kts 51°
2026-04-28 19:02 27.84437 -17.04774 6967 ft 269 kts 53°
2026-04-28 19:03 27.85508 -17.03067 6664 ft 270 kts 53°
2026-04-28 19:03 27.86582 -17.01339 6361 ft 267 kts 53°
2026-04-28 19:03 27.87644 -16.99621 6063 ft 266 kts 53°
2026-04-28 19:03 27.88696 -16.97911 5774 ft 264 kts 54°
2026-04-28 19:04 27.89743 -16.96206 5472 ft 263 kts 53°
2026-04-28 19:04 27.90793 -16.94526 5173 ft 261 kts 53°
2026-04-28 19:04 27.91769 -16.92795 4844 ft 262 kts 59°
2026-04-28 19:04 27.92589 -16.90967 4604 ft 258 kts 63°
2026-04-28 19:05 27.93299 -16.89145 4470 ft 249 kts 65°
2026-04-28 19:05 27.93942 -16.87368 4394 ft 237 kts 66°
2026-04-28 19:05 27.94541 -16.85673 4289 ft 228 kts 65°
2026-04-28 19:05 27.95118 -16.84028 4126 ft 222 kts 66°
2026-04-28 19:06 27.95675 -16.82436 3984 ft 214 kts 66°
2026-04-28 19:06 27.96033 -16.81407 3901 ft 209 kts 66°
2026-04-28 19:06 27.96731 -16.79405 3699 ft 201 kts 65°
2026-04-28 19:06 27.97229 -16.77977 3601 ft 188 kts 65°
2026-04-28 19:07 27.97699 -16.76630 3434 ft 180 kts 65°
2026-04-28 19:07 27.98153 -16.75331 3197 ft 176 kts 65°
2026-04-28 19:07 27.98591 -16.74055 2992 ft 171 kts 64°
2026-04-28 19:07 27.99037 -16.72796 2790 ft 173 kts 64°
2026-04-28 19:08 27.99481 -16.71519 2545 ft 176 kts 66°
2026-04-28 19:08 27.99933 -16.70219 2328 ft 179 kts 66°
2026-04-28 19:08 28.00384 -16.68922 2102 ft 180 kts 68°
2026-04-28 19:08 28.00844 -16.67603 1869 ft 177 kts 68°
2026-04-28 19:09 28.01283 -16.66342 1649 ft 169 kts 69°
2026-04-28 19:09 28.01703 -16.65137 1453 ft 157 kts 69°
2026-04-28 19:09 28.02082 -16.64051 1268 ft 143 kts 69°
2026-04-28 19:09 28.02442 -16.63014 1024 ft 137 kts 70°
2026-04-28 19:10 28.02782 -16.62014 866 ft 136 kts 69°
2026-04-28 19:10 28.03134 -16.61022 678 ft 137 kts 69°
2026-04-28 19:10 28.03483 -16.60015 470 ft 138 kts 69°
2026-04-28 19:10 28.03834 -16.59016 286 ft 135 kts 69°
2026-04-28 19:11 28.04161 -16.58071 205 ft 117 kts 69°
2026-04-28 19:11 28.04366 -16.57487 203 ft 47 kts 69°
2026-04-28 19:11 28.04500 -16.57113 208 ft 52 kts 62°
2026-04-28 19:11 28.04692 -16.56832 215 ft 21 kts 49°
2026-04-28 19:12 28.04744 -16.56799 221 ft 2 kts 343°
2026-04-28 19:12 28.04775 -16.56840 221 ft 11 kts 270°
2026-04-28 19:12 28.04746 -16.56944 223 ft 18 kts 248°
2026-04-28 19:12 28.04692 -16.57100 227 ft 20 kts 256°
2026-04-28 19:13 28.04774 -16.57190 226 ft 11 kts 310°
2026-04-28 19:13 28.04764 -16.57281 227 ft 12 kts 249°
2026-04-28 19:13 28.04781 -16.57317 228 ft 7 kts 332°
2026-04-28 19:13 28.04831 -16.57338 228 ft 0 kts 340°